User: anonymous   Login
Location: Unspecified
(0.0000°N, 0.0000°E)
Time: 06:49:01
(UTC+00:00)
Language:

FORMOSAT 3F - Orbit

View from above orbital plane
View from above orbital plane
View from above satellite
View from above satellite

Ground track
Ground track

The orbit data is extracted from the following two-line orbital elements,

1 29052U 06011F   17087.86681868 +.00000119 +00000-0 +63152-4 0  9992
2 29052 072.0352 043.2477 0042245 247.1857 112.4815 14.28666808571641
Epoch (UTC): 28 March 2017 20:48:13
Eccentricity: 0.0042245
inclination: 72.0352°
perigee height: 766 km
apogee height: 826 km
right ascension of ascending node: 43.2477°
argument of perigee: 247.1857°
revolutions per day: 14.28666808
mean anomaly at epoch: 112.4815°
orbit number at epoch: 57164

The dashed part of the orbit path shows where the satellite is in the earth's shadow,  

DLR